Probability
9 8 10 11 7 2 0 0 0 0 0 0 0 0 0 0 0 0 0 0 0 0 0 0 0 0 0 0 0 0 0 0 0 0 0 0 1 1 1 0 0 0 0 0 0 0 0 0 0
6 7 10 9 5 1 0 0 0 0 0 0 0 0 0 0 0 0 0 0 0 0 0 0 0 0 0 1 1 1 0 0 0 0 0 0 0 0 0 0 0 0 0 0 0 0 0 0 0
5 7 9 7 2 0 0 0 0 0 0 0 0 0 0 0 0 0 0 0 0 0 0 0 0 1 1 2 2 2 1 0 0 0 0 0 0 0 0 0 0 0 0 0 0 0 0 0 0
6 7 6 4 1 0 0 0 0 0 0 0 0 0 0 0 0 0 0 0 0 0 0 0 0 1 1 1 2 2 1 0 0 1 1 0 1 1 1 0 0 0 0 0 0 0 0 0 0
5 4 3 1 0 0 0 0 0 0 0 0 0 0 0 0 0 0 0 0 0 0 0 0 0 1 1 0 1 2 1 1 1 2 2 2 2 2 1 0 0 0 0 0 0 0 0 0 0
2 1 0 0 0 0 0 0 0 0 0 0 0 0 0 0 0 0 0 0 0 0 0 0 0 0 0 0 1 2 2 2 3 3 3 2 2 2 1 0 0 0 1 1 2 1 1 0 0
0 0 0 0 0 0 0 0 0 0 1 1 1 0 0 0 0 0 0 0 0 0 0 0 0 0 0 1 1 1 1 2 3 3 2 1 1 1 0 0 0 0 1 2 3 2 1 0 0
0 0 0 0 0 0 0 0 0 0 1 2 1 0 1 1 0 0 0 0 0 0 0 0 0 0 0 0 0 0 0 1 2 1 1 0 0 0 0 0 0 0 1 2 3 3 2 1 0
0 0 0 0 0 0 0 0 0 1 2 3 3 2 4 3 1 0 0 0 0 0 0 0 0 0 0 0 0 0 0 0 0 0 0 0 0 0 0 0 0 0 0 1 2 2 2 1 0
0 0 0 0 0 0 0 0 0 1 3 6 6 7 7 5 2 0 0 0 0 0 0 0 0 0 0 0 0 0 0 0 0 0 0 0 0 0 0 0 1 1 1 0 1 1 1 0 0
0 0 0 0 0 0 0 0 0 1 3 6 8 10 9 6 2 0 0 0 0 0 0 0 0 0 0 0 0 0 0 0 0 0 0 0 0 0 0 0 1 1 1 0 0 0 0 0 0
0 0 0 0 0 0 0 0 0 2 4 6 8 9 9 7 4 1 0 0 0 0 0 0 0 0 0 0 0 0 0 0 0 0 0 0 0 0 0 0 0 0 0 0 0 0 0 0 0
0 0 0 0 0 0 0 0 1 3 6 7 7 9 9 8 5 2 0 0 0 0 0 0 0 0 0 0 0 1 1 1 1 0 0 0 0 0 0 0 0 0 0 0 0 0 0 0 0
0 0 0 0 0 0 0 1 3 5 6 7 8 9 9 8 5 2 0 1 1 0 0 0 0 0 0 0 1 1 1 1 1 0 0 0 0 0 0 0 0 0 0 0 0 0 0 0 0
0 0 0 0 0 0 0 1 2 4 5 7 9 10 9 7 4 1 0 1 1 1 1 1 0 0 0 0 1 2 2 1 0 0 0 0 0 0 0 0 0 0 0 0 0 0 0 0 0
0 0 0 0 0 0 0 0 1 2 3 6 8 10 9 7 4 1 0 1 1 1 1 2 1 0 0 2 3 3 2 1 0 1 1 1 0 0 0 0 0 1 1 0 0 1 1 0 0
0 0 0 0 0 0 0 0 0 1 2 4 7 9 9 7 3 1 0 0 0 0 2 3 3 1 1 3 5 3 2 0 0 1 2 1 0 0 0 1 1 2 2 1 1 2 1 0 0
0 0 0 0 0 0 0 1 1 2 3 4 6 8 7 5 2 0 0 0 1 1 3 4 4 4 3 4 5 3 2 0 0 0 1 1 0 0 1 2 3 3 3 3 3 2 1 0 0
0 0 0 0 0 0 1 2 3 3 3 3 5 6 6 3 1 0 1 2 3 4 5 6 7 7 6 6 5 4 1 0 0 0 0 0 1 2 4 5 5 4 4 4 4 3 1 1 1
0 0 0 0 0 1 2 3 3 3 3 3 4 5 3 1 0 1 3 5 6 7 8 9 10 11 10 9 8 5 2 1 1 1 2 2 3 4 5 7 7 7 6 6 6 4 3 4 4
0 0 0 0 0 1 2 2 3 3 3 2 2 2 1 0 0 2 4 6 7 9 11 12 14 14 13 12 10 8 5 4 4 6 7 6 5 5 5 7 8 8 7 7 8 7 6 5 5
0 0 0 0 0 0 1 1 1 2 2 2 1 0 0 0 0 1 3 6 8 10 12 14 15 15 14 13 13 11 9 7 8 10 11 8 7 6 5 5 7 8 8 9 10 9 9 7 6
0 0 0 0 0 0 0 0 1 2 3 4 2 1 1 1 0 0 2 5 8 9 11 15 17 17 16 16 14 14 12 9 10 12 11 9 8 7 6 5 6 7 8 9 9 9 10 9 8
0 0 0 0 0 0 0 0 1 2 4 5 4 3 2 1 0 0 2 5 7 9 11 16 20 21 19 17 16 15 14 11 10 11 10 9 8 8 6 6 7 8 8 7 6 6 7 8 8
0 0 0 0 0 0 0 0 2 3 4 5 5 5 3 2 1 1 3 6 8 10 13 16 20 22 20 17 16 15 14 12 10 9 9 8 8 8 8 8 9 10 9 7 6 4 4 5 5
0 0 0 0 0 0 0 1 3 4 4 5 6 6 4 4 4 4 5 9 10 11 12 14 17 18 17 15 14 14 12 10 9 9 8 7 8 9 8 8 9 11 10 9 7 5 3 3 4
0 0 0 0 0 0 0 1 3 5 5 7 9 9 7 6 6 5 7 10 11 11 12 13 15 14 13 13 13 12 12 11 10 10 10 9 10 10 8 7 8 10 11 11 9 7 5 4 4
0 0 0 0 0 0 0 1 3 5 7 9 11 11 9 7 7 6 8 12 13 14 14 15 14 12 11 11 12 12 14 15 14 11 10 11 12 12 9 8 9 11 13 14 13 10 8 7 6
1 0 0 0 0 0 0 1 3 5 7 8 10 11 8 7 8 9 11 12 13 14 16 16 14 13 13 14 14 14 14 16 15 12 13 16 18 16 14 13 13 13 14 16 16 15 13 10 8
1 1 0 0 0 0 0 1 3 6 6 8 10 9 6 7 10 13 13 12 11 13 16 17 14 13 16 18 16 15 14 14 13 13 16 21 23 21 18 17 16 13 14 16 18 18 15 12 10
Wind_Speed
11 9 6 5 5 3 10 9 7 6 6 7 7 6 7 8 7 7 6 6 7 8 9 11 10 10 10 11 11 12 12 12 12 12 11 11 11 11 10 10 9 9 9 9 9 9 8 8 8
8 6 6 5 1 7 10 8 8 8 7 5 6 6 7 8 8 7 6 7 8 9 9 10 10 10 10 10 11 12 12 12 12 12 11 11 10 10 9 9 9 8 8 8 8 8 8 7 7
6 7 6 2 6 8 9 8 8 8 6 4 5 6 6 7 6 6 7 9 9 10 9 11 10 9 9 10 11 12 11 11 11 11 10 10 9 8 8 8 8 8 8 8 8 7 7 6 6
5 6 4 2 11 10 8 7 6 6 6 5 5 8 7 7 5 7 10 10 10 10 10 12 10 10 10 11 12 11 11 10 10 10 9 9 8 8 7 7 7 7 7 7 7 6 6 6 6
6 4 2 7 11 9 7 6 4 5 5 6 6 9 9 7 8 11 11 10 10 10 10 12 10 10 10 11 11 10 10 9 9 9 8 7 7 7 6 6 6 6 6 5 6 6 5 5 5
4 3 3 8 10 8 7 5 4 6 7 7 7 9 8 7 9 10 10 10 10 10 10 11 11 9 10 10 10 9 9 8 8 7 7 6 6 6 5 5 5 5 5 4 5 5 4 4 3
4 2 5 8 8 8 6 3 4 5 6 6 5 8 9 9 9 9 10 9 9 9 9 9 10 10 10 9 8 8 7 7 7 6 6 6 5 5 5 4 5 4 4 4 4 4 4 3 4
4 2 5 6 7 8 6 4 4 4 7 6 3 5 10 11 10 10 10 9 8 8 8 8 8 8 8 9 9 7 6 6 6 5 5 5 6 6 5 5 5 4 3 4 4 4 4 4 3
5 1 6 7 6 6 5 4 5 4 6 6 5 7 12 15 13 11 10 9 8 7 7 7 7 7 6 7 9 7 7 6 6 6 6 5 4 4 5 4 4 3 3 3 4 3 3 4 6
3 2 7 5 5 4 3 3 4 5 6 7 8 10 14 14 13 11 10 10 9 8 7 6 6 6 6 4 5 4 4 5 3 2 3 3 2 2 2 6 5 4 4 5 5 5 7 8 5
1 3 4 3 3 2 3 3 3 3 5 6 9 14 14 13 11 10 9 8 8 8 7 6 5 5 4 4 3 2 2 3 3 3 2 2 1 2 2 2 5 5 6 4 6 7 5 3 1
0 2 2 2 2 1 2 3 3 3 6 6 10 14 14 13 11 9 8 8 8 7 7 6 5 4 3 2 2 2 2 2 2 3 2 1 1 1 0 1 1 2 2 1 2 2 2 2 2
2 1 2 1 1 2 3 3 3 5 7 9 12 13 13 11 10 8 7 7 6 7 7 6 5 4 3 3 2 2 2 2 2 2 2 1 1 1 1 1 1 1 1 2 2 1 2 2 3
2 1 1 2 3 4 4 4 4 6 8 11 12 12 11 10 9 9 8 7 7 6 6 6 6 5 4 4 3 2 2 2 2 2 2 2 1 0 1 1 1 1 1 0 1 1 2 3 2
2 3 4 4 3 3 4 5 4 8 10 11 11 11 10 10 9 8 8 8 7 7 6 6 6 6 5 4 4 3 3 2 2 1 2 2 2 0 1 1 2 1 1 1 2 2 2 3 3
6 6 3 5 2 3 6 2 7 9 10 10 10 10 10 9 9 8 8 7 7 7 7 7 5 6 5 4 3 3 2 2 2 2 2 2 1 1 2 2 1 0 1 1 1 2 1 1 2
6 3 1 4 3 3 5 1 7 9 10 9 9 10 9 9 9 9 9 8 8 8 7 7 6 5 5 4 3 3 2 2 2 2 2 2 2 2 2 1 0 1 1 1 2 0 1 1 1
2 2 1 0 2 4 5 1 5 8 8 8 9 9 9 9 9 9 9 8 8 8 8 7 7 6 5 4 4 3 3 3 3 2 2 2 2 2 2 1 1 1 1 1 0 1 1 2 2
5 6 4 1 1 4 4 3 3 8 9 9 9 9 9 9 9 8 8 9 9 9 9 8 7 7 5 4 4 4 3 3 3 2 2 3 2 2 2 1 1 1 1 1 1 2 2 2 1
7 7 4 1 2 4 3 3 2 6 8 8 9 10 10 10 9 9 9 9 10 10 9 9 8 8 7 5 4 3 2 3 2 2 2 3 3 3 3 2 2 2 2 2 1 2 2 1 1
8 7 5 3 2 5 5 4 4 6 7 7 7 8 9 9 10 10 9 10 10 10 10 8 8 8 8 6 4 3 3 3 3 3 3 3 3 3 2 2 2 2 2 1 2 2 3 2 2
8 4 5 5 7 3 5 4 3 5 6 8 8 9 9 9 9 9 9 10 10 10 9 9 8 8 7 7 6 6 5 4 3 3 2 3 3 3 3 3 3 2 2 1 3 2 2 3 3
5 3 5 6 7 6 6 6 2 4 5 6 7 8 8 8 9 8 9 9 9 9 9 8 8 8 7 7 7 7 6 4 3 3 3 4 3 3 3 2 2 2 2 2 2 2 3 3 3
4 5 6 8 9 7 5 7 2 2 2 3 5 7 7 7 8 7 7 7 7 8 8 7 8 7 7 7 7 7 6 5 4 4 4 4 3 3 4 3 3 3 2 2 3 3 3 3 3
10 10 7 8 8 5 3 6 1 1 0 2 3 5 6 7 7 7 7 7 7 8 7 7 7 7 7 7 8 8 7 7 7 6 5 4 4 4 4 4 3 3 3 3 3 3 3 3 3
10 12 9 7 6 4 6 5 1 2 1 2 3 4 5 5 6 7 7 6 6 7 7 7 7 7 7 7 7 7 7 7 6 6 5 5 4 3 3 4 4 4 4 4 3 3 3 3 4
10 11 9 10 10 9 5 3 3 3 3 4 4 5 5 5 5 5 6 6 6 6 6 6 6 6 6 6 6 7 7 7 5 5 6 5 4 3 4 5 5 4 4 4 4 3 4 3 4
9 8 8 10 9 10 8 8 4 4 4 4 4 4 4 5 5 5 5 5 5 6 6 5 6 6 5 5 5 5 6 6 6 5 5 4 4 4 4 5 5 5 5 4 5 4 4 4 4
9 10 9 9 9 10 9 3 2 2 3 4 4 4 5 5 6 5 5 5 5 5 5 5 4 5 5 5 5 5 5 6 6 5 5 5 5 5 5 5 5 5 5 5 5 5 5 5 5
9 9 11 10 9 9 11 4 2 1 2 3 3 5 5 5 6 5 5 5 4 4 4 4 4 4 4 4 4 5 5 5 6 6 6 6 5 5 5 5 5 5 5 5 5 6 5 5 5
Wind_Direction
179 185 208 234 228 102 67 63 59 61 66 62 58 54 54 41 27 63 90 109 114 120 119 123 117 119 120 120 122 123 123 126 125 123 123 125 126 125 124 124 124 123 121 118 115 115 115 116 116
176 189 226 241 312 79 72 64 60 59 75 96 81 71 71 67 55 86 109 114 124 119 120 115 115 118 122 125 126 125 127 127 126 125 124 123 125 125 125 125 126 125 124 120 118 115 115 117 118
186 226 256 256 55 57 68 67 74 84 90 87 86 64 52 63 78 95 108 128 128 120 118 112 117 115 119 128 130 127 128 128 128 127 126 126 127 128 126 127 129 128 127 125 122 120 120 121 119
221 224 232 75 71 61 66 75 88 102 100 80 91 87 76 53 73 101 123 133 127 123 121 114 116 112 112 121 125 127 129 128 128 127 127 130 133 133 131 130 132 131 128 127 127 126 126 128 124
239 255 137 85 73 71 72 76 88 81 82 84 87 94 88 75 92 115 127 132 126 124 121 118 117 115 115 118 121 123 127 127 128 127 129 133 135 137 138 136 136 136 134 135 138 139 139 140 137
251 255 75 75 77 81 81 86 96 92 94 99 102 102 91 104 116 122 127 129 126 123 122 121 124 121 118 119 122 124 125 129 129 129 135 138 141 145 147 147 147 146 146 146 147 150 151 152 156
302 3 62 73 83 85 72 73 76 93 98 91 103 104 115 126 123 128 127 126 126 125 125 127 133 133 130 124 124 128 129 131 136 142 145 146 149 153 152 154 155 154 159 162 162 165 165 167 173
299 293 83 76 76 79 81 85 77 77 91 100 109 110 130 135 137 134 131 129 127 128 126 128 131 129 138 136 132 130 132 136 143 154 154 155 167 169 167 176 159 161 166 169 172 172 175 176 179
266 273 72 64 62 80 95 101 100 96 112 107 82 83 117 135 142 142 139 137 137 136 137 137 135 135 136 130 132 146 151 153 166 166 167 188 190 171 176 139 146 166 167 180 185 182 183 196 187
269 45 58 44 42 77 101 96 113 140 131 124 116 111 127 144 152 153 150 148 148 146 145 144 144 141 139 135 138 156 156 147 169 147 163 186 175 185 166 130 165 177 188 194 194 198 209 227 195
332 34 48 53 42 77 113 113 126 135 116 121 139 143 149 155 160 157 151 150 147 147 149 151 149 145 148 146 152 148 142 146 158 149 187 182 207 178 178 159 168 182 197 196 182 205 217 219 223
105 44 28 55 64 99 103 116 117 88 70 105 135 147 155 162 162 160 154 148 149 153 158 158 157 158 164 158 154 175 173 164 154 145 210 178 199 229 102 170 167 194 185 190 216 210 213 233 232
179 55 46 73 144 132 146 133 115 108 103 120 134 149 157 162 160 157 149 150 157 161 165 166 166 162 173 180 208 187 181 196 164 155 155 212 209 204 155 159 234 250 189 191 212 218 209 222 222
55 23 119 124 133 143 153 138 150 128 138 139 147 156 161 163 163 159 162 166 170 173 174 170 179 176 185 194 201 200 194 192 201 184 159 225 248 247 236 202 209 238 244 253 233 225 220 223 227
210 203 159 139 149 150 186 158 148 140 154 154 157 160 163 168 170 172 172 175 173 174 177 177 185 181 192 206 209 202 206 193 200 185 183 223 241 232 266 229 213 237 262 227 226 227 227 219 217
215 220 175 132 179 174 238 103 128 155 166 165 164 164 170 176 181 181 182 182 178 178 179 185 189 179 185 202 218 213 212 200 207 209 189 194 206 214 246 238 212 230 236 225 219 235 241 238 241
212 230 103 131 180 207 244 39 129 169 176 171 171 170 174 178 187 186 190 186 183 184 186 188 192 188 189 190 209 223 213 218 216 211 202 174 201 209 230 231 49 231 220 233 255 127 276 260 265
288 293 272 299 159 229 243 273 139 174 184 180 178 177 179 184 187 186 190 184 183 185 191 192 192 191 195 194 201 220 222 219 215 208 193 209 208 207 242 189 165 235 202 234 306 265 258 269 263
291 285 287 349 80 247 247 259 163 173 191 188 185 185 188 190 182 180 184 185 185 187 192 199 203 191 195 200 207 208 209 216 210 201 187 197 202 192 225 244 161 226 198 238 237 248 226 242 252
257 262 263 210 140 260 265 256 184 178 195 195 192 191 193 190 183 183 188 190 191 190 194 197 202 199 202 199 212 221 228 229 218 209 173 198 196 210 203 211 220 194 195 211 227 239 270 262 238
248 263 282 293 216 213 254 215 182 169 188 193 198 197 198 196 192 187 193 198 197 194 197 200 202 201 206 204 206 203 202 225 207 201 191 195 201 210 233 217 238 227 228 199 220 233 241 259 242
247 254 267 260 254 230 253 260 169 178 182 192 193 195 199 197 197 194 193 198 200 199 197 199 201 205 203 204 211 211 215 217 214 216 197 197 203 209 210 215 226 244 247 230 239 223 248 256 254
270 263 250 253 257 259 237 263 157 174 199 197 193 194 196 193 193 194 195 196 198 194 194 192 195 200 200 207 210 216 220 217 210 208 196 214 202 213 218 211 216 228 243 245 267 256 256 250 264
217 216 219 234 245 246 249 265 239 178 226 206 184 189 191 189 187 186 188 188 190 187 188 185 185 194 198 203 209 214 216 219 219 214 204 211 205 204 203 209 217 228 244 240 247 247 235 258 272
220 230 230 225 224 234 197 251 285 17 217 212 190 175 177 182 183 179 181 181 186 186 186 184 181 190 195 202 209 211 215 216 217 219 213 225 216 205 197 208 215 229 228 235 240 239 258 253 257
223 243 255 264 263 234 189 240 174 126 142 183 178 157 161 170 171 173 173 175 179 182 184 186 185 194 195 200 208 212 214 219 217 219 230 223 229 216 198 209 216 227 232 234 227 241 238 239 247
230 235 261 269 266 267 238 215 195 184 190 178 160 152 152 154 154 163 167 169 171 178 183 186 188 195 198 199 203 210 215 225 224 218 226 225 220 207 206 219 223 225 227 236 239 239 245 245 247
255 251 242 251 258 260 243 235 226 192 198 180 169 157 145 151 152 151 152 157 162 170 174 181 187 191 193 194 203 199 206 212 217 223 219 226 220 217 212 216 221 221 219 224 237 236 232 239 246
210 224 241 253 261 267 266 254 76 216 205 191 172 151 144 150 148 144 142 147 149 154 162 172 182 188 192 198 203 206 204 204 208 214 217 217 220 218 220 221 223 223 222 221 228 241 236 242 249
239 237 237 246 247 255 272 271 99 160 187 172 155 144 147 151 144 139 133 132 138 144 154 161 176 187 192 194 199 202 206 210 212 211 214 217 220 224 221 222 224 227 225 227 231 241 240 241 244